EDT,Max TemperatureF,Mean TemperatureF,Min TemperatureF,Max Dew PointF,MeanDew PointF,Min DewpointF,Max Humidity, Mean Humidity, Min Humidity, Max Sea Level PressureIn, Mean Sea Level PressureIn, Min Sea Level PressureIn, Max VisibilityMiles, Mean VisibilityMiles, Min VisibilityMiles, Max Wind SpeedMPH, Mean Wind SpeedMPH, Max Gust SpeedMPH,PrecipitationIn, CloudCover, Events, WindDirDegrees
2012-9-1,85,73,61,65,59,51,93,64,34,30.07,30.03,29.94,10,10,10,16,6,21,0.00,2,,284
2012-9-2,85,71,57,59,55,50,86,59,31,30.08,30.05,30.01,10,10,10,16,2,14,0.00,3,,71
2012-9-3,83,71,59,66,61,54,84,73,62,30.09,30.05,30.01,10,10,10,17,9,22,0.00,6,,115
2012-9-4,84,75,65,73,68,63,94,80,65,30.02,29.87,29.71,10,9,4,20,8,26,0.12,7,Rain,139
2012-9-5,82,74,66,66,64,63,90,71,51,29.88,29.83,29.75,10,10,10,14,6,17,T,7,Rain,317
2012-9-6,86,75,64,75,65,62,93,72,51,29.88,29.84,29.81,10,9,1,18,5,22,0.25,6,Rain,354
2012-9-7,86,74,62,65,62,57,93,68,43,29.92,29.86,29.72,10,9,6,12,4,24,0.00,6,Fog,120
2012-9-8,78,66,54,67,61,54,87,74,60,29.77,29.60,29.44,10,10,2,37,13,45,0.08,7,Rain,204
2012-9-9,71,63,55,55,52,47,93,70,47,29.94,29.86,29.78,10,10,10,20,7,24,T,5,Rain,264
2012-9-10,68,59,49,50,46,41,89,64,39,30.14,30.07,29.95,10,10,10,18,6,25,0.00,4,,326
2012-9-11,76,61,45,49,46,42,93,62,31,30.26,30.22,30.16,10,10,10,12,4,15,0.00,3,,162
2012-9-12,85,67,49,54,49,46,93,60,27,30.32,30.26,30.22,10,10,10,13,5,17,0.00,1,,136
2012-9-13,87,71,54,59,55,51,86,58,30,30.30,30.25,30.19,10,10,10,16,4,20,0.00,1,,132
2012-9-14,87,73,58,63,59,55,93,64,35,30.19,30.12,29.99,10,8,1,38,8,47,0.64,7,Rain-Thunderstorm,222
2012-9-15,69,62,54,56,50,46,93,69,45,30.19,30.14,30.11,10,10,10,17,9,23,T,5,,269
2012-9-16,70,59,48,52,49,46,96,73,49,30.14,30.09,30.03,10,10,10,15,5,20,0.00,3,,264
2012-9-17,81,65,49,55,50,47,93,64,35,30.06,29.99,29.89,10,10,10,18,6,23,0.00,5,,126
2012-9-18,77,66,55,67,61,52,100,79,58,29.87,29.62,29.40,10,7,1,30,10,43,0.82,8,Rain,194
2012-9-19,61,53,45,52,46,42,93,72,51,30.19,30.04,29.81,10,10,5,14,6,18,0.01,5,Rain,271
2012-9-20,72,56,40,49,44,39,93,66,38,30.18,30.08,29.99,10,10,10,21,9,26,0.00,2,,131
2012-9-21,74,67,60,62,56,49,93,75,56,29.99,29.94,29.87,10,10,9,14,5,17,0.01,8,Rain,143
2012-9-22,70,61,52,62,56,47,90,79,67,29.90,29.77,29.69,10,9,2,25,11,32,0.45,6,Rain,240
2012-9-23,64,54,43,48,42,35,89,64,39,30.12,30.03,29.92,10,10,10,23,10,28,0.01,4,Rain,260
2012-9-24,64,52,39,45,40,37,100,72,43,30.16,30.09,30.02,10,10,10,17,5,24,0.00,4,,228
2012-9-25,74,60,46,51,42,38,76,53,29,30.03,30.01,29.98,10,10,10,21,10,26,0.04,4,Rain,187
2012-9-26,71,64,57,61,57,51,87,77,66,30.07,29.98,29.94,10,10,3,13,6,17,0.12,8,Rain,209
2012-9-27,67,57,47,50,45,39,89,63,37,30.24,30.18,30.07,10,10,10,12,4,22,0.00,5,,302
2012-9-28,57,52,47,54,50,45,100,89,77,30.17,30.07,30.03,10,8,2,10,5,15,0.24,8,Rain,26
2012-9-29,66,59,51,53,49,43,100,72,44,30.02,29.96,29.91,10,10,10,13,4,16,0.00,7,,315
2012-9-30,56,54,51,54,51,48,100,92,83,29.92,29.84,29.78,10,7,2,14,5,17,0.32,8,Rain,280